• In Belgium
  • List of Countries
  • For 7 days
  • Water Temperature
  • Satellite Maps
  • Weather Map
  • Weather Widgets
  • user-avatar
    Login

    Hourly Weather Biskira

    Today, 22 November, Wednesday

    Time Temperature Precipitation Wind Pressure Humidity
    00:00 +14°C° 0 mm 1 mps 757 mmHg 40%
    01:00 +13°C° 0 mm 0 mps 756 mmHg 41%
    02:00 +12°C° 0 mm 0 mps 756 mmHg 42%
    03:00 +12°C° 0 mm 0 mps 756 mmHg 43%
    04:00 +12°C° 0 mm 0 mps 756 mmHg 43%
    05:00 +11°C° 0 mm 0 mps 755 mmHg 44%
    06:00 +11°C° 0 mm 0 mps 755 mmHg 44%
    07:00 +14°C° 0 mm 1 mps 756 mmHg 39%
    08:00 +16°C° 0 mm 1 mps 756 mmHg 34%
    09:00 +18°C° 0 mm 1 mps 756 mmHg 30%
    10:00 +19°C° 0 mm 1 mps 756 mmHg 29%
    11:00 +19°C° 0 mm 1 mps 755 mmHg 28%
    12:00 +19°C° 0 mm 2 mps 755 mmHg 27%
    13:00 +18°C° 0 mm 2 mps 755 mmHg 28%
    14:00 +18°C° 0 mm 2 mps 754 mmHg 29%
    15:00 +18°C° 0 mm 2 mps 754 mmHg 29%
    16:00 +18°C° 0 mm 1 mps 754 mmHg 32%
    17:00 +18°C° 0 mm 1 mps 754 mmHg 34%
    18:00 +16°C° 0 mm 1 mps 755 mmHg 37%
    19:00 +16°C° 0 mm 1 mps 755 mmHg 39%
    20:00 +15°C° 0 mm 1 mps 755 mmHg 41%
    21:00 +15°C° 0 mm 1 mps 755 mmHg 42%
    22:00 +14°C° 0 mm 1 mps 755 mmHg 44%
    23:00 +14°C° 0 mm 1 mps 755 mmHg 45%

    Tomorrow, 23 November, Thursday

    Time Temperature Precipitation Wind Pressure Humidity
    00:00 +12°C° 0 mm 0 mps 755 mmHg 46%
    01:00 +12°C° 0 mm 0 mps 755 mmHg 46%
    02:00 +12°C° 0 mm 0 mps 754 mmHg 47%
    03:00 +12°C° 0 mm 0 mps 754 mmHg 47%
    04:00 +12°C° 0 mm 0 mps 754 mmHg 47%
    05:00 +12°C° 0 mm 0 mps 754 mmHg 47%
    06:00 +12°C° 0 mm 0 mps 754 mmHg 47%
    07:00 +14°C° 0 mm 1 mps 755 mmHg 43%
    08:00 +15°C° 0 mm 1 mps 755 mmHg 39%
    09:00 +18°C° 0 mm 1 mps 755 mmHg 35%
    10:00 +18°C° 0 mm 1 mps 755 mmHg 34%
    11:00 +19°C° 0 mm 1 mps 755 mmHg 32%
    12:00 +19°C° 0 mm 2 mps 755 mmHg 30%
    13:00 +20°C° 0 mm 2 mps 755 mmHg 29%
    14:00 +20°C° 0 mm 2 mps 755 mmHg 28%
    15:00 +21°C° 0 mm 2 mps 754 mmHg 27%
    16:00 +20°C° 0 mm 2 mps 755 mmHg 30%
    17:00 +19°C° 0 mm 2 mps 755 mmHg 33%
    18:00 +18°C° 0 mm 2 mps 755 mmHg 35%
    19:00 +17°C° 0 mm 2 mps 756 mmHg 35%
    20:00 +17°C° 0 mm 2 mps 756 mmHg 36%
    21:00 +17°C° 0 mm 2 mps 756 mmHg 36%
    22:00 +16°C° 0 mm 2 mps 756 mmHg 36%
    23:00 +16°C° 0 mm 2 mps 756 mmHg 37%

    Day after tomorrow, 24 November, Friday

    Time Temperature Precipitation Wind Pressure Humidity
    00:00 +16°C° 0 mm 2 mps 756 mmHg 37%
    01:00 +15°C° 0 mm 2 mps 756 mmHg 37%
    02:00 +15°C° 0 mm 2 mps 756 mmHg 37%
    03:00 +15°C° 0 mm 2 mps 756 mmHg 37%
    04:00 +15°C° 0 mm 2 mps 756 mmHg 36%
    05:00 +14°C° 0 mm 2 mps 756 mmHg 36%
    06:00 +14°C° 0 mm 2 mps 756 mmHg 36%
    07:00 +16°C° 0 mm 1 mps 757 mmHg 32%
    08:00 +18°C° 0 mm 1 mps 757 mmHg 28%
    09:00 +20°C° 0 mm 1 mps 758 mmHg 25%
    10:00 +21°C° 0 mm 1 mps 757 mmHg 24%
    11:00 +21°C° 0 mm 1 mps 757 mmHg 23%
    12:00 +22°C° 0 mm 1 mps 757 mmHg 22%
    13:00 +22°C° 0 mm 1 mps 756 mmHg 22%
    14:00 +22°C° 0 mm 1 mps 756 mmHg 22%
    15:00 +23°C° 0 mm 1 mps 756 mmHg 22%
    16:00 +21°C° 0 mm 1 mps 756 mmHg 25%
    17:00 +20°C° 0 mm 1 mps 757 mmHg 29%
    18:00 +18°C° 0 mm 1 mps 757 mmHg 33%
    19:00 +18°C° 0 mm 1 mps 757 mmHg 34%
    20:00 +16°C° 0 mm 1 mps 757 mmHg 35%
    21:00 +16°C° 0 mm 1 mps 758 mmHg 36%
    22:00 +15°C° 0 mm 1 mps 757 mmHg 37%
    23:00 +15°C° 0 mm 1 mps 757 mmHg 38%

    25 November, Saturday

    Time Temperature Precipitation Wind Pressure Humidity
    00:00 +14°C° 0 mm 1 mps 757 mmHg 39%
    01:00 +14°C° 0 mm 1 mps 757 mmHg 40%
    02:00 +14°C° 0 mm 1 mps 757 mmHg 41%
    03:00 +13°C° 0 mm 1 mps 757 mmHg 41%
    04:00 +13°C° 0 mm 1 mps 757 mmHg 42%
    05:00 +13°C° 0 mm 1 mps 757 mmHg 42%
    06:00 +12°C° 0 mm 1 mps 757 mmHg 42%
    07:00 +14°C° 0 mm 1 mps 758 mmHg 38%
    08:00 +16°C° 0 mm 1 mps 758 mmHg 33%
    09:00 +19°C° 0 mm 1 mps 758 mmHg 28%
    10:00 +20°C° 0 mm 1 mps 758 mmHg 27%
    11:00 +21°C° 0 mm 1 mps 757 mmHg 26%
    12:00 +21°C° 0 mm 2 mps 757 mmHg 25%
    13:00 +21°C° 0 mm 2 mps 757 mmHg 25%
    14:00 +22°C° 0 mm 1 mps 756 mmHg 25%
    15:00 +22°C° 0 mm 1 mps 756 mmHg 25%
    16:00 +21°C° 0 mm 1 mps 756 mmHg 28%
    17:00 +19°C° 0 mm 1 mps 756 mmHg 32%
    18:00 +18°C° 0 mm 1 mps 757 mmHg 35%
    19:00 +16°C° 0 mm 1 mps 757 mmHg 36%
    20:00 +16°C° 0 mm 1 mps 757 mmHg 37%
    21:00 +16°C° 0 mm 1 mps 758 mmHg 38%
    22:00 +15°C° 0 mm 1 mps 758 mmHg 39%
    23:00 +15°C° 0 mm 1 mps 757 mmHg 39%

    26 November, Sunday

    Time Temperature Precipitation Wind Pressure Humidity
    00:00 +13°C° 0 mm 0 mps 757 mmHg 40%
    01:00 +14°C° 0 mm 1 mps 757 mmHg 40%
    02:00 +14°C° 0 mm 1 mps 757 mmHg 40%
    03:00 +14°C° 0 mm 1 mps 757 mmHg 39%
    04:00 +13°C° 0 mm 1 mps 757 mmHg 39%
    05:00 +13°C° 0 mm 1 mps 757 mmHg 39%
    06:00 +13°C° 0 mm 1 mps 757 mmHg 39%
    07:00 +15°C° 0 mm 1 mps 757 mmHg 36%
    08:00 +16°C° 0 mm 1 mps 757 mmHg 32%
    09:00 +19°C° 0 mm 1 mps 758 mmHg 28%
    10:00 +20°C° 0 mm 1 mps 757 mmHg 27%
    11:00 +20°C° 0 mm 1 mps 757 mmHg 26%
    12:00 +21°C° 0 mm 1 mps 757 mmHg 24%
    13:00 +21°C° 0 mm 1 mps 756 mmHg 24%
    14:00 +21°C° 0 mm 1 mps 756 mmHg 24%
    15:00 +22°C° 0 mm 1 mps 756 mmHg 24%
    16:00 +20°C° 0 mm 1 mps 756 mmHg 27%
    17:00 +19°C° 0 mm 1 mps 756 mmHg 30%
    18:00 +16°C° 0 mm 0 mps 757 mmHg 33%
    19:00 +16°C° 0 mm 1 mps 757 mmHg 33%
    20:00 +16°C° 0 mm 1 mps 757 mmHg 34%
    21:00 +16°C° 0 mm 1 mps 758 mmHg 34%
    22:00 +16°C° 0 mm 2 mps 758 mmHg 35%
    23:00 +16°C° 0 mm 2 mps 758 mmHg 35%

    27 November, Monday

    Time Temperature Precipitation Wind Pressure Humidity
    00:00 +16°C° 0 mm 2 mps 758 mmHg 36%
    01:00 +14°C° 0 mm 3 mps 758 mmHg 38%
    02:00 +14°C° 0 mm 3 mps 758 mmHg 41%
    03:00 +14°C° 0 mm 3 mps 758 mmHg 44%
    04:00 +14°C° 0 mm 3 mps 758 mmHg 47%
    05:00 +14°C° 0 mm 3 mps 759 mmHg 49%
    06:00 +13°C° 0 mm 3 mps 759 mmHg 52%
    07:00 +16°C° 0 mm 2 mps 759 mmHg 49%
    08:00 +17°C° 0 mm 2 mps 759 mmHg 46%
    09:00 +18°C° 0 mm 2 mps 760 mmHg 43%
    10:00 +19°C° 0 mm 2 mps 759 mmHg 41%
    11:00 +19°C° 0 mm 3 mps 759 mmHg 38%
    12:00 +20°C° 0 mm 3 mps 759 mmHg 36%
    13:00 +20°C° 0 mm 3 mps 759 mmHg 37%
    14:00 +20°C° 0 mm 3 mps 758 mmHg 38%
    15:00 +20°C° 0 mm 3 mps 758 mmHg 39%
    16:00 +19°C° 0 mm 2 mps 758 mmHg 43%
    17:00 +18°C° 0 mm 2 mps 758 mmHg 48%
    18:00 +17°C° 0 mm 2 mps 758 mmHg 52%
    19:00 +17°C° 0 mm 2 mps 758 mmHg 54%
    20:00 +16°C° 0 mm 2 mps 758 mmHg 57%
    21:00 +16°C° 0 mm 2 mps 758 mmHg 59%
    22:00 +16°C° 0 mm 2 mps 758 mmHg 62%
    23:00 +15°C° 0 mm 1 mps 757 mmHg 65%
    Show more